TimeEDT,TemperatureF,Dew PointF,Humidity,Sea Level PressureIn,VisibilityMPH,Wind Direction,Wind SpeedMPH,Gust SpeedMPH,PrecipitationIn,Events,Conditions,WindDirDegrees,DateUTC
12:53 AM,81.0,75.9,85,29.97,10.0,South,5.8,-,0.00,Rain,Light Rain,180,2013-09-24 04:53:00
1:53 AM,81.0,77.0,88,29.96,10.0,Calm,Calm,-,0.00,,Partly Cloudy,0,2013-09-24 05:53:00
2:53 AM,80.1,75.9,87,29.96,10.0,Calm,Calm,-,N/A,,Scattered Clouds,0,2013-09-24 06:53:00
3:53 AM,81.0,75.9,85,29.95,10.0,SSE,3.5,-,N/A,,Partly Cloudy,150,2013-09-24 07:53:00
4:53 AM,81.0,77.0,88,29.94,10.0,Calm,Calm,-,N/A,,Clear,0,2013-09-24 08:53:00
5:53 AM,81.0,77.0,88,29.94,10.0,Calm,Calm,-,N/A,,Partly Cloudy,0,2013-09-24 09:53:00
6:05 AM,80.6,77.0,89,29.95,10.0,Calm,Calm,-,N/A,,Mostly Cloudy,0,2013-09-24 10:05:00
6:37 AM,80.6,77.0,89,29.95,10.0,SSE,3.5,-,N/A,,Scattered Clouds,160,2013-09-24 10:37:00
6:53 AM,81.0,78.1,91,29.95,10.0,Calm,Calm,-,N/A,,Clear,0,2013-09-24 10:53:00
7:53 AM,81.0,78.1,91,29.96,10.0,South,3.5,-,N/A,,Clear,180,2013-09-24 11:53:00
8:53 AM,84.0,79.0,85,29.97,10.0,SSW,8.1,-,N/A,,Partly Cloudy,200,2013-09-24 12:53:00
9:53 AM,84.9,78.1,80,29.99,10.0,South,6.9,-,N/A,,Scattered Clouds,190,2013-09-24 13:53:00
10:53 AM,89.1,77.0,67,29.98,10.0,SSW,8.1,-,N/A,,Scattered Clouds,200,2013-09-24 14:53:00
11:53 AM,90.0,73.9,59,29.97,10.0,SSW,9.2,-,N/A,,Scattered Clouds,210,2013-09-24 15:53:00
12:53 PM,90.0,75.0,61,29.96,10.0,Variable,6.9,-,N/A,,Scattered Clouds,0,2013-09-24 16:53:00
1:53 PM,89.1,73.9,61,29.93,10.0,SW,8.1,-,N/A,,Mostly Cloudy,220,2013-09-24 17:53:00
2:53 PM,89.1,75.0,63,29.91,10.0,South,10.4,-,N/A,,Partly Cloudy,190,2013-09-24 18:53:00
3:53 PM,91.0,73.0,55,29.90,10.0,SW,13.8,20.7,N/A,,Clear,220,2013-09-24 19:53:00
4:53 PM,88.0,73.9,63,29.91,10.0,SW,12.7,-,N/A,,Partly Cloudy,230,2013-09-24 20:53:00
5:53 PM,82.9,78.1,85,29.91,10.0,West,5.8,-,0.00,,Clear,270,2013-09-24 21:53:00
6:53 PM,80.1,71.1,74,29.91,5.0,SW,9.2,32.2,0.02,Rain,Rain,230,2013-09-24 22:53:00
7:38 PM,80.6,75.2,84,29.91,10.0,NW,10.4,-,0.00,,Mostly Cloudy,310,2013-09-24 23:38:00
7:53 PM,79.0,73.9,84,29.92,10.0,NNW,6.9,-,0.00,,Scattered Clouds,330,2013-09-24 23:53:00
8:53 PM,79.0,73.9,84,29.93,10.0,Calm,Calm,-,N/A,,Clear,0,2013-09-25 00:53:00
9:53 PM,79.0,73.9,84,29.94,10.0,Calm,Calm,-,N/A,,Partly Cloudy,0,2013-09-25 01:53:00
10:53 PM,80.1,73.0,79,29.93,10.0,Calm,Calm,-,N/A,,Mostly Cloudy,0,2013-09-25 02:53:00
11:53 PM,80.1,73.0,79,29.92,10.0,NW,5.8,-,0.00,Rain,Light Rain,320,2013-09-25 03:53:00